Hourly Data Report for October 22, 2013

All times are specified in Local Standard Time (LST). Add 1 hour to adjust for Daylight Saving Time where and when it is observed.

QIKIQTARJUAQ A
NUNAVUT

67°32'48.000" N
64°01'54.000" W
5.50 m
2400577
YVM

Download Data

Hourly Data (October 2013)
Hourly Data Report for October 22, 2013
Temp Definition
°C
Dew Point Temp Definition
°C
Rel Hum Definition
%
Wind Dir Definition
10's deg

Wind Spd Definition
km/h
Visibility Definition
km
Stn Press Definition
kPa
Hmdx Definition


Wind Chill Definition


Weather Definition


TIME
00:00 Legend Double Dagger -1.0 -2.9 87 6 9 16.1 102.08   -4 LegendNANA
01:00 Legend Double Dagger -1.1 -2.8 88 6 5 16.1 102.08   -3 LegendNANA
02:00 Legend Double Dagger -1.4 -2.1 95 5 5 4.0 102.06   -3 LegendNANA
03:00 Legend Double Dagger -1.0 -1.7 95 1 15 2.8 102.05   -6 LegendNANA
04:00 Legend Double Dagger -1.5 -2.1 96 7 5 2.0 102.03   -3 LegendNANA
05:00 Legend Double Dagger -0.9 -3.0 86 1 17 16.1 102.01   -6 LegendNANA
06:00 Legend Double Dagger -1.3 -2.2 94 2 18 8.1 102.00   -7 LegendNANA
07:00 Legend Double Dagger -1.5 -2.2 95 3 13 3.2 101.96   -6 LegendNANA
08:00 Legend Double Dagger -1.1 -2.8 88 1 18 16.1 101.93   -6 LegendNANA
09:00 Legend Double Dagger -1.4 -2.4 93 1 15 4.8 101.92   -6 LegendNANA
10:00 Legend Double Dagger -1.2 -3.7 83 1 17 16.1 101.88   -6 LegendNANA
11:00 Legend Double Dagger -1.0 -3.5 84 36 22 16.1 101.84   -7 LegendNANA
12:00 Legend Double Dagger -1.0 -4.0 80 36 22 16.1 101.81   -7 LegendNANA
13:00 Legend Double Dagger -1.1 -4.0 81 35 24 16.1 101.80   -7 LegendNANA
14:00 Legend Double Dagger -1.5 -4.5 80 35 13 16.1 101.80   -6 LegendNANA
15:00 Legend Double Dagger -2.1 -4.7 82 33 11 16.1 101.79   -6 LegendNANA
16:00 Legend Double Dagger -2.0 -4.9 81 33 17 16.1 101.77   -7 LegendNANA
17:00 Legend Double Dagger -2.0 -5.6 77 31 15 16.1 101.75   -7 LegendNANA
18:00 Legend Double Dagger -1.6 -5.9 73 32 18 16.1 101.72   -7 LegendNANA
19:00 Legend Double Dagger -3.9 -7.6 76 15 9 16.1 101.72   -8 LegendNANA
20:00 Legend Double Dagger -4.3 -7.4 79 10 5 16.1 101.67   -6 LegendNANA
21:00 Legend Double Dagger -3.2 -6.7 77 14 4 16.1 101.63   -5 LegendNANA
22:00 Legend Double Dagger -3.9 -6.9 80 LegendMM 4 16.1 101.60   -6 LegendNANA
23:00 Legend Double Dagger -3.8 -7.3 77 19 9 16.1 101.57   -8 LegendNANA

Notes on Data Quality.

Legend

  • E = Estimated
  • M = Missing
  • NA = Not Available
  • ‡ = Partner data that is not subject to review by the National Climate Archives
Date modified: